Location: Chuathbaluk
(61.5726°N, 159.2454°W)
Time: 16:07:54
(UTC+00:00)

Explorer 7 - Visible Passes

Search period start: 26 November 2020 00:00
Search period end: 06 December 2020 00:00
Orbit: 484 x 678 km, 50.3° (Epoch: 25 November)

Date Brightness Start Highest point End Pass type
(mag) Time Alt. Az. Time Alt. Az. Time Alt. Az.
26 Nov 8.9 15:42:31 17° S 15:42:54 17° S 15:45:35 10° SE visible
26 Nov 9.1 17:19:57 10° SW 17:22:19 15° SSW 17:24:37 10° SSE visible
27 Nov 8.9 15:47:03 18° S 15:47:16 18° S 15:50:02 10° SE visible
27 Nov 9.2 17:24:39 10° SW 17:26:39 13° SSW 17:28:35 10° S visible
28 Nov 8.8 15:51:34 18° S 15:51:38 18° S 15:54:23 10° SE visible
28 Nov 9.3 17:29:42 10° SW 17:30:57 11° SSW 17:32:09 10° S visible
29 Nov 8.9 15:56:04 17° S 15:56:04 17° S 15:58:37 10° SSE visible
30 Nov 9.0 16:00:35 15° SSW 16:00:35 15° SSW 16:02:44 10° SSE visible
01 Dec 9.1 16:05:06 13° SSW 16:05:06 13° SSW 16:06:39 10° S visible
02 Dec 9.3 16:09:40 11° SSW 16:09:40 11° SSW 16:10:09 10° S visible
